Regional Weather Roundup
Issued by NWS

Home | Current Version | Previous Version | Text Only | Print | Product List | Glossary On
Versions: 1 2 3 4 5 6 7 8 9 10 11 12 13 14 15 16 17 18 19 20 21 22 23 24 25 26 27 28 29 30 31 32 33 34 35 36 37 38 39 40 41 42 43 44 45 46 47 48 49 50
000
ASUS42 KTBW 281216
RWRFL
FLORIDA REGIONAL WEATHER ROUNDUP
NATIONAL WEATHER SERVICE TAMPA BAY RUSKIN FL
800 AM EDT THU MAY 28 2015

NOTE: "FAIR" INDICATES FEW OR NO CLOUDS BELOW 12,000 FEET WITH NO
SIGNIFICANT WEATHER AND/OR OBSTRUCTIONS TO VISIBILITY.


FLZ001>010-012>015-112-114-115-281300-
PANHANDLE FLORIDA

CITY           SKY/WX    TMP DP  RH WIND       PRES   REMARKS
PENSACOLA      PTSUNNY   72  70  93 N8        30.13R
PENSACOLA NAS  PTSUNNY   78  75  90 NE8       30.12R
MILTON NAS     CLOUDY    70  68  93 NE5       30.15
CRESTVIEW      PTSUNNY   70  69  97 E3        30.16R
DUKE FIELD     CLOUDY    69  68  96 CALM      30.14R
VALPARAISO     PTSUNNY   72  69  91 N3        30.14R
MARY ESTHER    MOSUNNY   73  69  88 NE6       30.12
TRI COUNTY     FAIR      71  69  93 NE3       30.16R
PANAMA CITY    FAIR      72  69  90 NE6       30.13R
APALACHICOLA   PTSUNNY   76  71  85 NE5       30.13R

STATION/POSITION SKY/WX   TEMP    WIND        PRES    WAVE   SWELL
                          AIR SEA DIR/SP/G            HT/PER HT/PER
                          (F)     (DEG/KT/KT) (MB)    (FT/S) (FT/S)
30.1N   87.6W              80 80  110/  4/  6 1019.1R   3/ 7   2/ 7
29.2N   88.2W              79 79  170/  8/ 10 1019.6R   3/ 6   3/ 6
28.8N   86.0W              80 81  110/ 12/ 14 1019.7R   3/ 6   2/ 6
PANAMA CITY BEAC           73 81   60/  4/  6 1019.7R
CAPE SAN BLAS    NOT AVBL
TOWER C                    79     140/ 13/ 14 1020.1R
28.5N   84.5W              80 81  140/ 12/ 14 1019.8R   2/ 3

$$
FLZ011-016>038-118-127-128-134-139-239-281300-
NORTH FLORIDA

CITY           SKY/WX    TMP DP  RH WIND       PRES   REMARKS
MARIANNA       MOSUNNY   71  71 100 CALM      30.15R
TALLAHASSEE    PTSUNNY   72  67  84 E9        30.16R
PERRY          SUNNY     71  68  91 E3        30.17R
CROSS CITY       N/A     72  67  84 CALM      30.15R
LAKE CITY      FAIR      68  66  94 CALM      30.18R
GAINESVILLE    CLOUDY    68  66  93 CALM      30.17R
MAYPORT NAS    MOSUNNY   79  65  62 E9        30.17R
JACKSONVILLE   MOSUNNY   71  68  90 CALM      30.18R
JAX NAS        MOSUNNY   79  66  64 E6        30.18R
JAX CRAIG      PTSUNNY   72  67  84 CALM      30.18R
JAX CECIL      SUNNY     68  66  94 CALM      30.18R
FERNANDINA BEA PTSUNNY   81  68  65 SE3       30.17R
ST AUGUSTINE   MOSUNNY   77  66  68 E12       30.18R

STATION/POSITION SKY/WX   TEMP    WIND        PRES    WAVE   SWELL
                          AIR SEA DIR/SP/G            HT/PER HT/PER
                          (F)     (DEG/KT/KT) (MB)    (FT/S) (FT/S)
SHELL POINT                78     120/  9/ 14   N/A
KEATON BEACH               71      80/  8/  9 1021.2R
CEDAR KEY                  74      80/  7/  9 1021.2R
FERNANDINA                 75 81  120/  2/  3 1020.7R
30.7N   81.3W                 79                N/A     3/ 8
MAYPORT                    76 78  120/  4/  7 1021.2R
31.4N   80.9W              77 78   70/  8/  8 1022.5R   3/ 8   2/ 8
ST AUGUSTINE               77 78   90/ 13/ 14 1022.4R

$$
FLZ040-043>046-052-053-057-058-063-144-281300-
INTERIOR CENTRAL FLORIDA

CITY           SKY/WX    TMP DP  RH WIND       PRES   REMARKS
OCALA          MOSUNNY   72  64  78 NE5       30.16R
THE VILLAGES     N/A     73  72  94 NE5       30.06R
LEESBURG       SUNNY     76  66  71 E6        30.16R
SANFORD        SUNNY     74  65  73 E7        30.14R
ORLANDO EXEC   SUNNY     74  66  76 E9        30.14R
ORLANDO INTL   MOSUNNY   75  66  73 NE9       30.14R
KISSIMMEE      SUNNY     73  68  83 NE5       30.14R
WINTER HAVEN   SUNNY     75  66  73 E7        30.15R
LAKELAND       SUNNY     73  66  78 E5        30.14R
BARTOW         MOSUNNY   72  66  83 E7        30.14R
OKEECHOBEE     SUNNY     70  66  88 CALM      30.12R

$$
FLZ041-047-054-059-064-141-147-281300-
EAST CENTRAL FLORIDA

CITY           SKY/WX    TMP DP  RH WIND       PRES   REMARKS
ORMOND BEACH   MOSUNNY   75  63  64 E9        30.15R
DAYTONA BEACH  MOSUNNY   77  62  59 E8        30.15R
DELAND           N/A     72  66  83 NE3       30.16R
NEW SMYRNA BEA MOSUNNY   77  63  61 E6        30.15R
JFK SPACE CTR  SUNNY     75  66  73 E2        30.13R
TITUSVILLE     SUNNY     75  68  78 E9        30.14R
CAPE CANAVERAL SUNNY     78  66  68 E7        30.12R
PATRICK AFB    MOSUNNY   79  66  64 E20       30.11S
MELBOURNE      PTSUNNY   78  67  68 E17       30.12R
VERO BEACH     CLOUDY    79  64  60 E14       30.12R
FT PIERCE      CLOUDY    78  66  66 E13       30.11R

STATION/POSITION SKY/WX   TEMP    WIND        PRES    WAVE   SWELL
                          AIR SEA DIR/SP/G            HT/PER HT/PER
                          (F)     (DEG/KT/KT) (MB)    (FT/S) (FT/S)
28.5N   80.2W              78 81   80/ 14/ 17 1020.1R
28.9N   78.5W              76 79   70/ 12/ 16 1021.0R
TRIDENT PIER               76 82   70/  8/ 11 1020.3R
28.4N   80.5W                 82                N/A     3/ 8
27.5N   80.2W                 81                N/A     4/ 8

$$
FLZ050-056-061-142-242-148-248-149-249-151-251-155-255-
160-260-281300-
WEST CENTRAL FLORIDA

CITY           SKY/WX    TMP DP  RH WIND       PRES   REMARKS
CRYSTAL RIVER  FAIR      70  68  94 E3        30.15R
INVERNESS      FAIR      70  70 100 NE3       30.16R
BROOKSVILLE    SUNNY     72  68  87 E5        30.15R
CLEARWATER     SUNNY     76  67  73 E12       30.12R
TAMPA INTL     MOSUNNY   75  66  73 NE5       30.13R
TAMPA EXEC     SUNNY     72  70  94 CALM      30.14R
PLANT CITY     SUNNY     75  68  78 E3        30.15R
MACDILL AFB    SUNNY     75  69  83 E10       30.12R
PETER O KNIGHT SUNNY     77  70  78 E6        30.13R
ST PETERSBURG  SUNNY     76  66  71 SE13      30.11R
SARASOTA       SUNNY     72  65  78 E8        30.10R
VENICE         FAIR      73  66  78 E7        30.12R

STATION/POSITION SKY/WX   TEMP    WIND        PRES    WAVE   SWELL
                          AIR SEA DIR/SP/G            HT/PER HT/PER
                          (F)     (DEG/KT/KT) (MB)    (FT/S) (FT/S)
CEDAR KEY                  74      80/  7/  9 1021.2R
28.5N   84.5W              80 81  140/ 12/ 14 1019.8R   2/ 3
27.3N   84.2W                 81                N/A     3/ 5
CLEARWATER BEACH           76 83  100/  7/ 10 1019.6R
MIDDLE TAMPA BAY           74     110/ 10/ 12 1019.6R
VENICE                     73 83   90/  8/  9 1019.4R

$$
FLZ066-069-070-075>078-162-262-165-265-281300-
SOUTHWEST FLORIDA AND KEYS

CITY           SKY/WX    TMP DP  RH WIND       PRES   REMARKS
PUNTA GORDA    SUNNY     69  65  86 E7        30.13R
FT MYERS       SUNNY     72  66  81 NE6       30.10R
SOUTHWEST INTL SUNNY     71  66  84 NE7       30.10R
NAPLES         SUNNY     74  66  76 NE7       30.09R
MARCO ISLAND     N/A     72  63  73 NE6       30.09R
IMMOKALEE      SUNNY    N/A N/A N/A CALM      30.11R
MARATHON       MOSUNNY   81  66  60 E10       30.05R
KEY WEST NAS   PTSUNNY   80  67  64 E10       30.05R
KEY WEST INTL  SUNNY     79  68  69 E12       30.05R

STATION/POSITION SKY/WX   TEMP    WIND        PRES    WAVE   SWELL
                          AIR SEA DIR/SP/G            HT/PER HT/PER
                          (F)     (DEG/KT/KT) (MB)    (FT/S) (FT/S)
VENICE                     73 83   90/  8/  9 1019.4R
NAPLES                     72 83   60/  3/  6 1018.4R
26.0N   85.6W              81 81   90/ 12/ 17 1018.0R   3/ 5   2/ 8
DRY TORTUGAS               81     110/ 17/ 19 1016.7R
NW FL BAY                  78      80/ 12/ 14 1017.8
SAND KEY                   80      80/ 17/ 19 1017.2R
SOMBRERO KEY               79      80/ 15/ 16 1018.0R
LONG KEY                   79 81   90/ 13/ 15 1018.5R
MOLASSES REEF              79 81   80/ 18/ 21 1017.6R

$$
FLZ067-068-071>074-168-172>174-281300-
SOUTHEAST FLORIDA

CITY           SKY/WX    TMP DP  RH WIND       PRES   REMARKS
W PALM BEACH   MOSUNNY   79  61  53 E16       30.10R
FT LAUDER-EXEC MOSUNNY   79  63  57 E16G23    30.08R
FT LAUDERDALE  MOSUNNY   79  65  62 E13       30.07S
POMPANO BEACH  MOSUNNY   79  63  57 E17       30.08R
OPA LOCKA      MOSUNNY   78  65  63 E13       30.08R
MIAMI          PTSUNNY   78  64  61 E9        30.08R
WEST KENDALL   SUNNY     78  62  57 E7        30.08R
HOMESTEAD      SUNNY     79  64  59 NE8       30.06S

STATION/POSITION SKY/WX   TEMP    WIND        PRES    WAVE   SWELL
                          AIR SEA DIR/SP/G            HT/PER HT/PER
                          (F)     (DEG/KT/KT) (MB)    (FT/S) (FT/S)
PORT EVERGLADES            79      70/ 14/ 20 1018.4R
VIRGINIA KEY               78 81   70/ 12/ 14 1017.7R
LAKE WORTH                 78 81   60/ 16/ 18 1018.4R
SETTLEMENT POINT           77      80/ 13/ 15 1020.0R

$$




USA.gov is the U.S. government's official web portal to all federal, state and local government web resources and services.